Weather History for Worland, WY

Change the Weather History Date:

Tuesday, July 30, 2013

  Actual Average Record
Temperature  
Mean Temperature 71 °F 73 °F  
Max Temperature 84 °F 90 °F 102 °F (1964)
Min Temperature 58 °F 56 °F 41 °F (2009)
Degree Days  
Heating Degree Days 0 0  
Month to date heating degree days 0 10  
Since 1 June heating degree days 45 103  
Since 1 July heating degree days 0 10  
Cooling Degree Days 6 8  
Month to date cooling degree days 328 220  
Year to date cooling degree days 478 316  
Since 1 June cooling degree days 461 304  
Growing Degree Days 20 (Base 50)    
Moisture  
Dew Point 48 °F    
Average Humidity 48    
Maximum Humidity 72    
Minimum Humidity 24    
Precipitation  
Precipitation 0.10 in 0.03 in 0.13 in (1985)
Month to date precipitation 0.30 0.69  
Year to date precipitation 3.08 5.00  
Sea Level Pressure  
Sea Level Pressure 30.05 in    
Wind  
Wind Speed 8 mph (NE)    
Max Wind Speed 13 mph    
Max Gust Speed 37 mph    
Visibility 10 miles    
Events Rain , Thunderstorm    
T = Trace of Precipitation, MM = Missing Value Source: NWS Daily Summary

Daily Weather History Graph

Daily Weather History Graph

Search for Another Location

Airport:

Trip Planner

Search our weather history database for the weather conditions in past years. The results will help you decide how hot, cold, wet, or windy it might be!

Date:

Astronomy

Jul. 30, 2013 Rise Set
Actual Time 5:58 AM MDT 8:37 PM MDT
Civil Twilight 5:25 AM MDT 9:10 PM MDT
Nautical Twilight 4:43 AM MDT 9:52 PM MDT
Astronomical Twilight 3:55 AM MDT 10:39 PM MDT
Moon 12:19 AM MDT (7/30) 2:59 PM MDT (7/30)
Length of Visible Light 15h 45m
Length of Day
14h 39m
Last Quarter, 40% of the Moon is Illuminated
Jul 30
Last Quarter
Aug 6
New
Aug 14
First Quarter
Aug 20
Full
Aug 28
Last Quarter

Hourly Weather History & Observations

Time (MDT) Temp. Dew Point Humidity Pressure Visibility Wind Dir Wind Speed Gust Speed Precip Events Conditions
12:53 AM 64.9 °F 45.0 °F 48% 29.98 in 10.0 mi SSE 6.9 mph - N/A   Clear
1:53 AM 66.0 °F 46.0 °F 48% 29.96 in 10.0 mi SE 8.1 mph - N/A   Clear
2:53 AM 60.1 °F 46.9 °F 62% 30.00 in 10.0 mi NE 5.8 mph - N/A   Clear
3:53 AM 59.0 °F 46.0 °F 62% 30.00 in 10.0 mi South 8.1 mph - N/A   Clear
4:53 AM 62.1 °F 50.0 °F 65% 29.99 in 10.0 mi SE 9.2 mph - N/A   Clear
5:53 AM 60.1 °F 46.9 °F 62% 30.00 in 10.0 mi SE 9.2 mph - N/A   Clear
6:53 AM 61.0 °F 48.0 °F 62% 30.01 in 10.0 mi SSE 10.4 mph - N/A   Clear
7:53 AM 68.0 °F 48.0 °F 49% 30.02 in 10.0 mi ESE 6.9 mph - N/A   Clear
8:53 AM 70.0 °F 53.1 °F 55% 30.03 in 10.0 mi NW 3.5 mph - N/A   Clear
9:53 AM 75.0 °F 50.0 °F 41% 30.03 in 10.0 mi Variable 3.5 mph - N/A   Clear
10:53 AM 77.0 °F 48.0 °F 36% 30.03 in 10.0 mi West 4.6 mph - N/A   Clear
11:53 AM 81.0 °F 45.0 °F 28% 30.02 in 10.0 mi Variable 3.5 mph - N/A   Clear
12:53 PM 82.9 °F 44.1 °F 25% 30.01 in 10.0 mi North 5.8 mph - N/A   Clear
1:01 PM 82.4 °F 44.6 °F 26% 30.15 in 10.0 mi NNW 10.4 mph - N/A Thunderstorm Partly Cloudy
1:20 PM 73.4 °F 46.4 °F 38% 30.20 in 5.0 mi NNW 25.3 mph 48.3 mph N/A   Haze
1:25 PM 69.8 °F 48.2 °F 46% 30.20 in 2.5 mi NNW 33.4 mph 48.3 mph 0.02 in Rain , Thunderstorm Rain
1:53 PM 68.0 °F 50.0 °F 52% 30.06 in 10.0 mi NE 16.1 mph 20.7 mph 0.10 in Rain Light Rain
2:11 PM 73.4 °F 55.4 °F 53% 30.14 in 10.0 mi NE 12.7 mph - 0.00 in   Scattered Clouds
2:53 PM 80.1 °F 48.0 °F 32% 30.04 in 10.0 mi North 8.1 mph 17.3 mph 0.00 in   Clear
3:53 PM 81.0 °F 43.0 °F 26% 30.03 in 10.0 mi ESE 11.5 mph 20.7 mph N/A   Clear
4:53 PM 81.0 °F 44.1 °F 27% 30.02 in 10.0 mi ESE 5.8 mph - N/A   Clear
5:53 PM 82.9 °F 43.0 °F 24% 30.01 in 10.0 mi North 6.9 mph - N/A   Clear
6:53 PM 81.0 °F 43.0 °F 26% 30.01 in 10.0 mi North 4.6 mph - N/A   Clear
8:53 PM 66.0 °F 48.0 °F 52% 30.09 in 10.0 mi North 12.7 mph 18.4 mph N/A   Clear
9:53 PM 62.1 °F 53.1 °F 72% 30.13 in 10.0 mi WSW 6.9 mph - 0.00 in   Clear
11:53 PM 60.1 °F 52.0 °F 75% 30.15 in 10.0 mi Calm Calm - N/A   Mostly Cloudy